Time,TemperatureF,DewpointF,PressureIn,WindDirection,WindDirectionDegrees,WindSpeedMPH,WindSpeedGustMPH,Humidity,HourlyPrecipIn,Conditions,Clouds,dailyrainin,SoftwareType,DateUTC
2013-06-10 00:01:00,64.1,59.2,30.11,West,265,1.0,1.0,84,0.00,,,0.00,Wunderground v.1.15,2013-06-10 04:01:00,
2013-06-10 00:02:00,64.0,59.1,30.11,WSW,252,2.0,2.0,84,0.00,,,0.00,Wunderground v.1.15,2013-06-10 04:02:00,
2013-06-10 00:05:00,63.9,59.0,30.11,WSW,242,2.0,2.0,84,0.00,,,0.00,Wunderground v.1.15,2013-06-10 04:05:00,
2013-06-10 00:06:00,63.9,59.0,30.11,WSW,258,2.0,3.0,84,0.00,,,0.00,Wunderground v.1.15,2013-06-10 04:06:00,
2013-06-10 00:10:00,63.7,59.1,30.11,WSW,254,2.0,3.0,85,0.00,,,0.00,Wunderground v.1.15,2013-06-10 04:10:00,
2013-06-10 00:15:00,63.7,59.1,30.11,WSW,249,2.0,3.0,85,0.00,,,0.00,Wunderground v.1.15,2013-06-10 04:15:00,
2013-06-10 00:20:00,63.6,59.0,30.11,WSW,253,2.0,3.0,85,0.00,,,0.00,Wunderground v.1.15,2013-06-10 04:20:00,
2013-06-10 00:25:00,63.5,58.9,30.11,West,262,2.0,3.0,85,0.00,,,0.00,Wunderground v.1.15,2013-06-10 04:25:00,
2013-06-10 00:30:00,63.4,59.1,30.11,WSW,242,2.0,2.0,86,0.00,,,0.00,Wunderground v.1.15,2013-06-10 04:30:00,
2013-06-10 00:36:00,63.4,59.1,30.11,West,261,2.0,6.0,86,0.00,,,0.00,Wunderground v.1.15,2013-06-10 04:36:00,
2013-06-10 00:41:00,63.4,59.1,30.11,SW,232,2.0,5.0,86,0.00,,,0.00,Wunderground v.1.15,2013-06-10 04:41:00,
2013-06-10 00:46:00,63.3,59.0,30.11,West,270,2.0,5.0,86,0.00,,,0.00,Wunderground v.1.15,2013-06-10 04:46:00,
2013-06-10 00:52:00,63.1,58.8,30.11,WSW,242,2.0,3.0,86,0.00,,,0.00,Wunderground v.1.15,2013-06-10 04:52:00,
2013-06-10 00:57:00,63.1,58.8,30.11,WSW,256,2.0,3.0,86,0.00,,,0.00,Wunderground v.1.15,2013-06-10 04:57:00,
2013-06-10 01:03:00,63.0,58.7,30.11,West,267,1.0,1.0,86,0.00,,,0.00,Wunderground v.1.15,2013-06-10 05:03:00,
2013-06-10 01:08:00,62.9,59.0,30.11,WSW,256,1.0,1.0,87,0.00,,,0.00,Wunderground v.1.15,2013-06-10 05:08:00,
2013-06-10 01:13:00,62.7,58.8,30.11,WSW,250,1.0,2.0,87,0.00,,,0.00,Wunderground v.1.15,2013-06-10 05:13:00,
2013-06-10 01:18:00,62.5,58.6,30.11,WSW,255,1.0,2.0,87,0.00,,,0.00,Wunderground v.1.15,2013-06-10 05:18:00,
2013-06-10 01:23:00,62.4,58.8,30.12,West,260,1.0,2.0,88,0.00,,,0.00,Wunderground v.1.15,2013-06-10 05:23:00,
2013-06-10 01:29:00,62.3,58.7,30.12,West,276,0.0,1.0,88,0.00,,,0.00,Wunderground v.1.15,2013-06-10 05:29:00,
2013-06-10 01:34:00,62.2,58.6,30.11,West,271,0.0,1.0,88,0.00,,,0.00,Wunderground v.1.15,2013-06-10 05:34:00,
2013-06-10 01:39:00,62.0,58.4,30.11,West,270,0.0,0.0,88,0.00,,,0.00,Wunderground v.1.15,2013-06-10 05:39:00,
2013-06-10 01:44:00,61.9,58.3,30.11,West,269,0.0,0.0,88,0.00,,,0.00,Wunderground v.1.15,2013-06-10 05:44:00,
2013-06-10 01:49:00,61.8,58.5,30.11,West,277,0.0,0.0,89,0.00,,,0.00,Wunderground v.1.15,2013-06-10 05:49:00,
2013-06-10 01:55:00,61.6,58.3,30.11,West,269,0.0,3.0,89,0.00,,,0.00,Wunderground v.1.15,2013-06-10 05:55:00,
2013-06-10 02:00:00,61.5,58.2,30.11,WSW,250,1.0,1.0,89,0.00,,,0.00,Wunderground v.1.15,2013-06-10 06:00:00,
2013-06-10 02:05:00,61.3,58.3,30.11,West,269,1.0,1.0,90,0.00,,,0.00,Wunderground v.1.15,2013-06-10 06:05:00,
2013-06-10 02:11:00,61.1,58.1,30.11,West,275,1.0,2.0,90,0.00,,,0.00,Wunderground v.1.15,2013-06-10 06:11:00,
2013-06-10 02:16:00,60.9,58.3,30.11,West,265,1.0,5.0,91,0.00,,,0.00,Wunderground v.1.15,2013-06-10 06:16:00,
2013-06-10 02:21:00,60.8,58.2,30.11,WSW,257,2.0,2.0,91,0.00,,,0.00,Wunderground v.1.15,2013-06-10 06:21:00,
2013-06-10 02:26:00,60.8,58.2,30.11,WNW,285,2.0,4.0,91,0.00,,,0.00,Wunderground v.1.15,2013-06-10 06:26:00,
2013-06-10 02:32:00,60.8,58.2,30.11,West,266,2.0,2.0,91,0.00,,,0.00,Wunderground v.1.15,2013-06-10 06:32:00,
2013-06-10 02:37:00,60.8,58.2,30.11,WNW,297,1.0,2.0,91,0.00,,,0.00,Wunderground v.1.15,2013-06-10 06:37:00,
2013-06-10 02:42:00,60.8,58.2,30.11,West,278,1.0,1.0,91,0.00,,,0.00,Wunderground v.1.15,2013-06-10 06:42:00,
2013-06-10 02:48:00,60.6,58.0,30.11,WNW,286,1.0,3.0,91,0.00,,,0.00,Wunderground v.1.15,2013-06-10 06:48:00,
2013-06-10 02:54:00,60.4,57.8,30.11,West,275,1.0,1.0,91,0.00,,,0.00,Wunderground v.1.15,2013-06-10 06:54:00,
2013-06-10 02:59:00,60.3,57.7,30.11,West,275,1.0,1.0,91,0.00,,,0.00,Wunderground v.1.15,2013-06-10 06:59:00,
2013-06-10 03:05:00,60.2,57.6,30.11,West,281,0.0,1.0,91,0.00,,,0.00,Wunderground v.1.15,2013-06-10 07:05:00,
2013-06-10 03:10:00,59.9,57.6,30.11,WSW,254,1.0,2.0,92,0.00,,,0.00,Wunderground v.1.15,2013-06-10 07:10:00,
2013-06-10 03:16:00,59.7,57.4,30.11,West,277,1.0,2.0,92,0.00,,,0.00,Wunderground v.1.15,2013-06-10 07:16:00,
2013-06-10 03:21:00,59.6,57.6,30.11,WSW,258,1.0,2.0,93,0.00,,,0.00,Wunderground v.1.15,2013-06-10 07:21:00,
2013-06-10 03:26:00,59.6,57.6,30.12,West,263,0.0,2.0,93,0.00,,,0.00,Wunderground v.1.15,2013-06-10 07:26:00,
2013-06-10 03:31:00,59.5,57.5,30.12,West,270,0.0,0.0,93,0.00,,,0.00,Wunderground v.1.15,2013-06-10 07:31:00,
2013-06-10 03:36:00,59.4,57.4,30.12,West,269,1.0,2.0,93,0.00,,,0.00,Wunderground v.1.15,2013-06-10 07:36:00,
2013-06-10 03:41:00,59.3,57.3,30.11,WNW,283,1.0,1.0,93,0.00,,,0.00,Wunderground v.1.15,2013-06-10 07:41:00,
2013-06-10 03:47:00,59.3,57.3,30.11,West,277,1.0,1.0,93,0.00,,,0.00,Wunderground v.1.15,2013-06-10 07:47:00,
2013-06-10 03:52:00,59.2,57.2,30.11,West,277,0.0,0.0,93,0.00,,,0.00,Wunderground v.1.15,2013-06-10 07:52:00,
2013-06-10 03:58:00,59.1,57.1,30.11,West,276,0.0,1.0,93,0.00,,,0.00,Wunderground v.1.15,2013-06-10 07:58:00,
2013-06-10 04:04:00,59.0,57.0,30.11,West,276,0.0,0.0,93,0.00,,,0.00,Wunderground v.1.15,2013-06-10 08:04:00,
2013-06-10 04:09:00,58.9,56.9,30.11,WNW,285,0.0,1.0,93,0.00,,,0.00,Wunderground v.1.15,2013-06-10 08:09:00,
2013-06-10 04:14:00,58.8,57.1,30.11,West,259,0.0,0.0,94,0.00,,,0.00,Wunderground v.1.15,2013-06-10 08:14:00,
2013-06-10 04:19:00,58.8,57.1,30.11,West,264,1.0,2.0,94,0.00,,,0.00,Wunderground v.1.15,2013-06-10 08:19:00,
2013-06-10 04:24:00,58.7,57.0,30.11,West,275,1.0,1.0,94,0.00,,,0.00,Wunderground v.1.15,2013-06-10 08:24:00,
2013-06-10 04:29:00,58.7,57.0,30.11,WNW,286,0.0,1.0,94,0.00,,,0.00,Wunderground v.1.15,2013-06-10 08:29:00,
2013-06-10 04:35:00,58.6,56.9,30.12,WNW,286,0.0,0.0,94,0.00,,,0.00,Wunderground v.1.15,2013-06-10 08:35:00,
2013-06-10 04:40:00,58.5,56.8,30.12,WNW,286,0.0,0.0,94,0.00,,,0.00,Wunderground v.1.15,2013-06-10 08:40:00,
2013-06-10 04:46:00,58.4,56.7,30.12,West,265,0.0,0.0,94,0.00,,,0.00,Wunderground v.1.15,2013-06-10 08:46:00,
2013-06-10 04:51:00,58.4,56.7,30.12,West,268,0.0,0.0,94,0.00,,,0.00,Wunderground v.1.15,2013-06-10 08:51:00,
2013-06-10 04:56:00,58.3,56.6,30.12,West,276,0.0,2.0,94,0.00,,,0.00,Wunderground v.1.15,2013-06-10 08:56:00,
2013-06-10 05:01:00,58.2,56.5,30.12,WNW,283,0.0,2.0,94,0.00,,,0.00,Wunderground v.1.15,2013-06-10 09:01:00,
2013-06-10 05:06:00,58.2,56.5,30.13,WNW,284,1.0,2.0,94,0.00,,,0.00,Wunderground v.1.15,2013-06-10 09:06:00,
2013-06-10 05:12:00,58.2,56.5,30.13,WNW,284,0.0,1.0,94,0.00,,,0.00,Wunderground v.1.15,2013-06-10 09:12:00,
2013-06-10 05:17:00,58.1,56.4,30.12,WNW,284,0.0,1.0,94,0.00,,,0.00,Wunderground v.1.15,2013-06-10 09:17:00,
2013-06-10 05:22:00,58.0,56.3,30.12,WNW,284,0.0,0.0,94,0.00,,,0.00,Wunderground v.1.15,2013-06-10 09:22:00,
2013-06-10 05:27:00,58.0,56.3,30.12,WNW,284,0.0,0.0,94,0.00,,,0.00,Wunderground v.1.15,2013-06-10 09:27:00,
2013-06-10 05:33:00,57.9,56.2,30.12,WNW,284,0.0,0.0,94,0.00,,,0.00,Wunderground v.1.15,2013-06-10 09:33:00,
2013-06-10 05:38:00,57.9,56.2,30.12,WNW,284,0.0,0.0,94,0.00,,,0.00,Wunderground v.1.15,2013-06-10 09:38:00,
2013-06-10 05:44:00,57.8,56.1,30.12,WNW,284,0.0,0.0,94,0.00,,,0.00,Wunderground v.1.15,2013-06-10 09:44:00,
2013-06-10 05:49:00,57.8,56.1,30.12,WNW,284,0.0,0.0,94,0.00,,,0.00,Wunderground v.1.15,2013-06-10 09:49:00,
2013-06-10 05:54:00,57.9,56.2,30.13,WNW,284,0.0,0.0,94,0.00,,,0.00,Wunderground v.1.15,2013-06-10 09:54:00,
2013-06-10 05:59:00,58.0,56.3,30.13,WNW,288,0.0,0.0,94,0.00,,,0.00,Wunderground v.1.15,2013-06-10 09:59:00,
2013-06-10 06:04:00,58.2,56.5,30.13,NE,41,0.0,1.0,94,0.00,,,0.00,Wunderground v.1.15,2013-06-10 10:04:00,
2013-06-10 06:10:00,58.5,56.5,30.13,NNE,25,0.0,0.0,93,0.00,,,0.00,Wunderground v.1.15,2013-06-10 10:10:00,
2013-06-10 06:15:00,58.8,56.5,30.14,NNE,28,0.0,0.0,92,0.00,,,0.00,Wunderground v.1.15,2013-06-10 10:15:00,
2013-06-10 06:20:00,59.3,56.7,30.13,NNE,28,0.0,2.0,91,0.00,,,0.00,Wunderground v.1.15,2013-06-10 10:20:00,
2013-06-10 06:26:00,60.3,57.0,30.14,NNE,22,1.0,2.0,89,0.00,,,0.00,Wunderground v.1.15,2013-06-10 10:26:00,
2013-06-10 06:31:00,61.0,57.1,30.14,NNE,26,1.0,4.0,87,0.00,,,0.00,Wunderground v.1.15,2013-06-10 10:31:00,
2013-06-10 06:36:00,61.5,57.3,30.14,NE,42,1.0,4.0,86,0.00,,,0.00,Wunderground v.1.15,2013-06-10 10:36:00,
2013-06-10 06:41:00,61.8,57.2,30.14,NNE,21,2.0,2.0,85,0.00,,,0.00,Wunderground v.1.15,2013-06-10 10:41:00,
2013-06-10 06:47:00,62.2,57.3,30.14,North,9,1.0,2.0,84,0.00,,,0.00,Wunderground v.1.15,2013-06-10 10:47:00,
2013-06-10 06:52:00,62.5,57.3,30.14,NNE,30,1.0,2.0,83,0.00,,,0.00,Wunderground v.1.15,2013-06-10 10:52:00,
2013-06-10 06:57:00,62.7,57.5,30.14,NE,49,1.0,3.0,83,0.00,,,0.00,Wunderground v.1.15,2013-06-10 10:57:00,
2013-06-10 07:03:00,62.9,57.3,30.14,ENE,76,1.0,2.0,82,0.00,,,0.00,Wunderground v.1.15,2013-06-10 11:03:00,
2013-06-10 07:08:00,63.0,57.4,30.14,NE,49,1.0,2.0,82,0.00,,,0.00,Wunderground v.1.15,2013-06-10 11:08:00,
2013-06-10 07:13:00,63.1,57.5,30.15,ESE,108,1.0,2.0,82,0.00,,,0.00,Wunderground v.1.15,2013-06-10 11:13:00,
2013-06-10 07:18:00,63.3,57.4,30.15,ENE,66,0.0,2.0,81,0.00,,,0.00,Wunderground v.1.15,2013-06-10 11:18:00,
2013-06-10 07:23:00,63.5,57.6,30.15,NE,44,1.0,1.0,81,0.00,,,0.00,Wunderground v.1.15,2013-06-10 11:23:00,
2013-06-10 07:29:00,63.7,57.4,30.15,NE,52,1.0,3.0,80,0.00,,,0.00,Wunderground v.1.15,2013-06-10 11:29:00,
2013-06-10 07:34:00,63.9,57.6,30.15,NE,36,1.0,4.0,80,0.00,,,0.00,Wunderground v.1.15,2013-06-10 11:34:00,
2013-06-10 07:40:00,64.0,57.7,30.15,ENE,61,1.0,1.0,80,0.00,,,0.00,Wunderground v.1.15,2013-06-10 11:40:00,
2013-06-10 07:45:00,64.2,57.5,30.15,NE,49,1.0,2.0,79,0.00,,,0.00,Wunderground v.1.15,2013-06-10 11:45:00,
2013-06-10 07:50:00,64.4,57.7,30.15,NE,47,1.0,4.0,79,0.00,,,0.00,Wunderground v.1.15,2013-06-10 11:50:00,
2013-06-10 07:55:00,64.4,57.4,30.15,NE,53,2.0,4.0,78,0.00,,,0.00,Wunderground v.1.15,2013-06-10 11:55:00,
2013-06-10 08:00:00,64.7,57.3,30.15,NE,43,1.0,1.0,77,0.00,,,0.00,Wunderground v.1.15,2013-06-10 12:00:00,
2013-06-10 08:05:00,64.9,57.5,30.15,NNE,25,1.0,3.0,77,0.00,,,0.00,Wunderground v.1.15,2013-06-10 12:05:00,
2013-06-10 08:11:00,65.1,57.3,30.15,NE,54,2.0,2.0,76,0.00,,,0.00,Wunderground v.1.15,2013-06-10 12:11:00,
2013-06-10 08:16:00,65.4,57.6,30.15,ENE,68,2.0,4.0,76,0.00,,,0.00,Wunderground v.1.15,2013-06-10 12:16:00,
2013-06-10 08:22:00,65.8,57.7,30.15,NNE,20,1.0,4.0,75,0.00,,,0.00,Wunderground v.1.15,2013-06-10 12:22:00,
2013-06-10 08:27:00,65.9,57.4,30.14,East,92,2.0,4.0,74,0.00,,,0.00,Wunderground v.1.15,2013-06-10 12:27:00,
2013-06-10 08:32:00,65.9,57.4,30.14,ENE,73,3.0,4.0,74,0.00,,,0.00,Wunderground v.1.15,2013-06-10 12:32:00,
2013-06-10 08:37:00,65.9,57.4,30.14,NE,55,3.0,4.0,74,0.00,,,0.00,Wunderground v.1.15,2013-06-10 12:37:00,
2013-06-10 08:42:00,65.7,57.2,30.15,ESE,109,3.0,6.0,74,0.00,,,0.00,Wunderground v.1.15,2013-06-10 12:42:00,
2013-06-10 08:47:00,65.1,56.6,30.15,ENE,61,4.0,7.0,74,0.00,,,0.00,Wunderground v.1.15,2013-06-10 12:47:00,
2013-06-10 08:53:00,64.8,56.7,30.15,ENE,69,5.0,6.0,75,0.00,,,0.00,Wunderground v.1.15,2013-06-10 12:53:00,
2013-06-10 08:59:00,65.1,56.6,30.14,ENE,74,4.0,6.0,74,0.00,,,0.00,Wunderground v.1.15,2013-06-10 12:59:00,
2013-06-10 09:04:00,65.5,56.6,30.15,ENE,70,3.0,4.0,73,0.00,,,0.00,Wunderground v.1.15,2013-06-10 13:04:00,
2013-06-10 09:09:00,65.8,56.9,30.15,NE,42,3.0,5.0,73,0.00,,,0.00,Wunderground v.1.15,2013-06-10 13:09:00,
2013-06-10 09:15:00,66.0,56.3,30.15,SE,126,3.0,7.0,71,0.00,,,0.00,Wunderground v.1.15,2013-06-10 13:15:00,
2013-06-10 09:20:00,66.1,56.4,30.15,ENE,57,3.0,3.0,71,0.00,,,0.00,Wunderground v.1.15,2013-06-10 13:20:00,
2013-06-10 09:26:00,65.7,56.4,30.15,NE,51,3.0,5.0,72,0.00,,,0.00,Wunderground v.1.15,2013-06-10 13:26:00,
2013-06-10 09:32:00,65.1,55.8,30.15,East,101,4.0,7.0,72,0.00,,,0.00,Wunderground v.1.15,2013-06-10 13:32:00,
2013-06-10 09:37:00,64.9,56.4,30.15,NE,51,3.0,7.0,74,0.00,,,0.00,Wunderground v.1.15,2013-06-10 13:37:00,
2013-06-10 09:42:00,65.0,56.9,30.15,ENE,67,3.0,5.0,75,0.00,,,0.00,Wunderground v.1.15,2013-06-10 13:42:00,
2013-06-10 09:48:00,64.8,56.3,30.15,ENE,59,3.0,7.0,74,0.00,,,0.00,Wunderground v.1.15,2013-06-10 13:48:00,
2013-06-10 09:54:00,64.6,56.9,30.15,ENE,73,4.0,7.0,76,0.00,,,0.00,Wunderground v.1.15,2013-06-10 13:54:00,
2013-06-10 09:59:00,64.8,57.1,30.15,ESE,105,4.0,7.0,76,0.00,,,0.00,Wunderground v.1.15,2013-06-10 13:59:00,
2013-06-10 10:05:00,65.0,57.2,30.15,East,82,3.0,7.0,76,0.00,,,0.00,Wunderground v.1.15,2013-06-10 14:05:00,
2013-06-10 10:11:00,65.2,56.7,30.15,NE,36,3.0,6.0,74,0.00,,,0.00,Wunderground v.1.15,2013-06-10 14:11:00,
2013-06-10 10:17:00,65.1,57.0,30.15,NNE,32,3.0,7.0,75,0.00,,,0.00,Wunderground v.1.15,2013-06-10 14:17:00,
2013-06-10 10:22:00,65.5,57.4,30.16,NNE,13,2.0,2.0,75,0.00,,,0.00,Wunderground v.1.15,2013-06-10 14:22:00,
2013-06-10 10:27:00,65.2,56.7,30.16,NE,44,3.0,7.0,74,0.00,,,0.00,Wunderground v.1.15,2013-06-10 14:27:00,
2013-06-10 10:33:00,64.6,56.9,30.15,NW,321,4.0,6.0,76,0.00,,,0.00,Wunderground v.1.15,2013-06-10 14:33:00,
2013-06-10 10:39:00,64.8,57.1,30.16,NE,51,2.0,6.0,76,0.00,,,0.00,Wunderground v.1.15,2013-06-10 14:39:00,
2013-06-10 10:44:00,64.6,57.2,30.15,NE,51,2.0,7.0,77,0.00,,,0.00,Wunderground v.1.15,2013-06-10 14:44:00,
2013-06-10 10:49:00,64.1,57.1,30.15,ENE,60,3.0,7.0,78,0.00,,,0.00,Wunderground v.1.15,2013-06-10 14:49:00,
2013-06-10 10:54:00,64.0,57.0,30.16,NE,55,2.0,3.0,78,0.00,,,0.00,Wunderground v.1.15,2013-06-10 14:54:00,
2013-06-10 10:59:00,64.0,57.0,30.16,NE,46,2.0,5.0,78,0.00,,,0.00,Wunderground v.1.15,2013-06-10 14:59:00,
2013-06-10 11:04:00,63.6,57.3,30.16,ENE,68,2.0,4.0,80,0.00,,,0.00,Wunderground v.1.15,2013-06-10 15:04:00,
2013-06-10 11:09:00,63.5,57.2,30.15,NE,49,2.0,4.0,80,0.00,,,0.00,Wunderground v.1.15,2013-06-10 15:09:00,
2013-06-10 11:15:00,63.7,57.4,30.15,NE,41,2.0,6.0,80,0.00,,,0.00,Wunderground v.1.15,2013-06-10 15:15:00,
2013-06-10 11:20:00,63.7,57.4,30.15,East,84,3.0,4.0,80,0.00,,,0.00,Wunderground v.1.15,2013-06-10 15:20:00,
2013-06-10 11:25:00,63.8,57.5,30.15,East,98,3.0,6.0,80,0.00,,,0.00,Wunderground v.1.15,2013-06-10 15:25:00,
2013-06-10 11:30:00,64.0,57.7,30.15,ESE,102,3.0,6.0,80,0.00,,,0.00,Wunderground v.1.15,2013-06-10 15:30:00,
2013-06-10 11:36:00,64.1,57.5,30.15,East,79,2.0,6.0,79,0.00,,,0.00,Wunderground v.1.15,2013-06-10 15:36:00,
2013-06-10 11:41:00,64.0,57.7,30.15,ENE,67,3.0,5.0,80,0.00,,,0.00,Wunderground v.1.15,2013-06-10 15:41:00,
2013-06-10 11:47:00,64.4,58.1,30.15,East,81,2.0,5.0,80,0.00,,,0.00,Wunderground v.1.15,2013-06-10 15:47:00,
2013-06-10 11:52:00,64.8,58.1,30.15,NNE,27,1.0,5.0,79,0.00,,,0.00,Wunderground v.1.15,2013-06-10 15:52:00,
2013-06-10 11:57:00,64.9,58.2,30.15,ESE,102,2.0,5.0,79,0.00,,,0.00,Wunderground v.1.15,2013-06-10 15:57:00,
2013-06-10 12:02:00,65.2,58.5,30.15,ENE,73,2.0,5.0,79,0.00,,,0.00,Wunderground v.1.15,2013-06-10 16:02:00,
2013-06-10 12:07:00,65.1,58.4,30.15,NE,53,2.0,5.0,79,0.00,,,0.00,Wunderground v.1.15,2013-06-10 16:07:00,
2013-06-10 12:12:00,64.8,57.8,30.15,ENE,59,2.0,5.0,78,0.00,,,0.00,Wunderground v.1.15,2013-06-10 16:12:00,
2013-06-10 12:18:00,64.0,58.1,30.15,NE,50,3.0,6.0,81,0.00,,,0.00,Wunderground v.1.15,2013-06-10 16:18:00,
2013-06-10 12:23:00,64.1,58.1,30.15,NNE,18,3.0,3.0,81,0.00,,,0.00,Wunderground v.1.15,2013-06-10 16:23:00,
2013-06-10 12:28:00,64.3,58.0,30.15,NE,38,2.0,4.0,80,0.00,,,0.00,Wunderground v.1.15,2013-06-10 16:28:00,
2013-06-10 12:34:00,64.4,58.1,30.15,ENE,59,2.0,2.0,80,0.00,,,0.00,Wunderground v.1.15,2013-06-10 16:34:00,
2013-06-10 12:39:00,64.5,58.2,30.15,East,82,1.0,4.0,80,0.00,,,0.00,Wunderground v.1.15,2013-06-10 16:39:00,
2013-06-10 12:44:00,64.3,58.0,30.15,NE,38,2.0,4.0,80,0.00,,,0.00,Wunderground v.1.15,2013-06-10 16:44:00,
2013-06-10 12:49:00,64.6,58.3,30.15,ENE,63,2.0,4.0,80,0.00,,,0.00,Wunderground v.1.15,2013-06-10 16:49:00,
2013-06-10 12:55:00,64.6,57.6,30.15,East,82,2.0,5.0,78,0.00,,,0.00,Wunderground v.1.15,2013-06-10 16:55:00,
2013-06-10 13:00:00,64.2,57.5,30.15,ENE,57,3.0,3.0,79,0.00,,,0.00,Wunderground v.1.15,2013-06-10 17:00:00,
2013-06-10 13:05:00,64.0,57.7,30.15,ENE,61,3.0,4.0,80,0.00,,,0.00,Wunderground v.1.15,2013-06-10 17:05:00,
2013-06-10 13:10:00,64.0,57.7,30.15,NE,51,2.0,2.0,80,0.00,,,0.00,Wunderground v.1.15,2013-06-10 17:10:00,
2013-06-10 13:15:00,64.2,58.2,30.15,NE,54,2.0,2.0,81,0.00,,,0.00,Wunderground v.1.15,2013-06-10 17:15:00,
2013-06-10 13:20:00,64.0,58.1,30.14,NE,46,2.0,3.0,81,0.00,,,0.00,Wunderground v.1.15,2013-06-10 17:20:00,
2013-06-10 13:25:00,63.8,58.2,30.14,ENE,71,2.0,3.0,82,0.00,,,0.00,Wunderground v.1.15,2013-06-10 17:25:00,
2013-06-10 13:31:00,63.7,58.1,30.14,ENE,67,2.0,3.0,82,0.00,,,0.00,Wunderground v.1.15,2013-06-10 17:31:00,
2013-06-10 13:36:00,63.0,57.4,30.14,NE,53,4.0,6.0,82,0.00,,,0.00,Wunderground v.1.15,2013-06-10 17:36:00,
2013-06-10 13:42:00,63.2,58.6,30.14,North,355,2.0,3.0,85,0.00,,,0.00,Wunderground v.1.15,2013-06-10 17:42:00,
2013-06-10 13:47:00,63.4,58.8,30.14,NE,55,1.0,3.0,85,0.00,,,0.00,Wunderground v.1.15,2013-06-10 17:47:00,
2013-06-10 13:53:00,62.7,57.8,30.14,ENE,69,2.0,3.0,84,0.00,,,0.00,Wunderground v.1.15,2013-06-10 17:53:00,
2013-06-10 13:58:00,62.4,58.2,30.13,NNE,26,2.0,3.0,86,0.00,,,0.00,Wunderground v.1.15,2013-06-10 17:58:00,
2013-06-10 14:05:00,61.9,57.7,30.13,NE,47,3.0,4.0,86,0.00,,,0.00,Wunderground v.1.15,2013-06-10 18:05:00,
2013-06-10 14:11:00,61.8,58.2,30.13,ENE,72,2.0,4.0,88,0.00,,,0.00,Wunderground v.1.15,2013-06-10 18:11:00,
2013-06-10 14:16:00,61.7,58.1,30.13,NNE,21,1.0,4.0,88,0.00,,,0.00,Wunderground v.1.15,2013-06-10 18:16:00,
2013-06-10 14:21:00,61.8,58.5,30.13,East,84,1.0,2.0,89,0.00,,,0.00,Wunderground v.1.15,2013-06-10 18:21:00,
2013-06-10 14:26:00,61.5,58.2,30.13,ENE,61,2.0,5.0,89,0.00,,,0.00,Wunderground v.1.15,2013-06-10 18:26:00,
2013-06-10 14:31:00,61.3,58.0,30.12,NE,54,2.0,2.0,89,0.00,,,0.00,Wunderground v.1.15,2013-06-10 18:31:00,
2013-06-10 14:36:00,61.1,57.8,30.12,NE,46,2.0,3.0,89,0.00,,,0.00,Wunderground v.1.15,2013-06-10 18:36:00,
2013-06-10 14:42:00,61.0,57.7,30.13,NE,52,1.0,3.0,89,0.00,,,0.00,Wunderground v.1.15,2013-06-10 18:42:00,
2013-06-10 14:47:00,60.9,57.6,30.13,NNE,31,1.0,3.0,89,0.00,,,0.00,Wunderground v.1.15,2013-06-10 18:47:00,
2013-06-10 14:52:00,61.0,58.0,30.13,SSW,197,1.0,2.0,90,0.00,,,0.00,Wunderground v.1.15,2013-06-10 18:52:00,
2013-06-10 14:57:00,61.1,58.1,30.12,East,85,1.0,2.0,90,0.00,,,0.00,Wunderground v.1.15,2013-06-10 18:57:00,
2013-06-10 15:03:00,61.4,58.4,30.12,ESE,115,1.0,3.0,90,0.00,,,0.00,Wunderground v.1.15,2013-06-10 19:03:00,
2013-06-10 15:08:00,61.7,58.7,30.13,East,82,1.0,4.0,90,0.00,,,0.00,Wunderground v.1.15,2013-06-10 19:08:00,
2013-06-10 15:13:00,62.0,59.0,30.12,ENE,67,1.0,1.0,90,0.00,,,0.00,Wunderground v.1.15,2013-06-10 19:13:00,
2013-06-10 15:19:00,62.1,58.5,30.12,ENE,59,2.0,4.0,88,0.00,,,0.00,Wunderground v.1.15,2013-06-10 19:19:00,
2013-06-10 15:24:00,62.2,58.6,30.12,East,90,2.0,2.0,88,0.00,,,0.00,Wunderground v.1.15,2013-06-10 19:24:00,
2013-06-10 15:29:00,62.1,58.2,30.12,ESE,107,2.0,5.0,87,0.00,,,0.00,Wunderground v.1.15,2013-06-10 19:29:00,
2013-06-10 15:35:00,62.4,58.8,30.11,NE,38,2.0,4.0,88,0.00,,,0.00,Wunderground v.1.15,2013-06-10 19:35:00,
2013-06-10 15:40:00,62.6,58.7,30.11,South,178,1.0,1.0,87,0.00,,,0.00,Wunderground v.1.15,2013-06-10 19:40:00,
2013-06-10 15:45:00,62.7,58.8,30.11,ESE,118,1.0,2.0,87,0.00,,,0.00,Wunderground v.1.15,2013-06-10 19:45:00,
2013-06-10 15:51:00,62.6,58.7,30.11,NE,40,2.0,2.0,87,0.00,,,0.00,Wunderground v.1.15,2013-06-10 19:51:00,
2013-06-10 15:56:00,62.7,58.8,30.10,NE,43,3.0,6.0,87,0.00,,,0.00,Wunderground v.1.15,2013-06-10 19:56:00,
2013-06-10 16:01:00,62.5,58.3,30.10,East,98,4.0,7.0,86,0.00,,,0.00,Wunderground v.1.15,2013-06-10 20:01:00,
2013-06-10 16:06:00,62.4,58.5,30.10,ENE,72,4.0,7.0,87,0.00,,,0.00,Wunderground v.1.15,2013-06-10 20:06:00,
2013-06-10 16:11:00,62.3,58.4,30.09,ENE,61,4.0,7.0,87,0.00,,,0.00,Wunderground v.1.15,2013-06-10 20:11:00,
2013-06-10 16:17:00,62.2,58.0,30.10,East,101,4.0,8.0,86,0.00,,,0.00,Wunderground v.1.15,2013-06-10 20:17:00,
2013-06-10 16:22:00,62.4,58.5,30.10,SW,219,2.0,3.0,87,0.00,,,0.00,Wunderground v.1.15,2013-06-10 20:22:00,
2013-06-10 16:27:00,62.5,57.9,30.09,NE,56,2.0,7.0,85,0.00,,,0.00,Wunderground v.1.15,2013-06-10 20:27:00,
2013-06-10 16:33:00,62.5,58.3,30.09,ESE,102,2.0,4.0,86,0.00,,,0.00,Wunderground v.1.15,2013-06-10 20:33:00,
2013-06-10 16:38:00,62.4,58.5,30.09,ENE,74,2.0,4.0,87,0.00,,,0.00,Wunderground v.1.15,2013-06-10 20:38:00,
2013-06-10 16:44:00,62.0,58.1,30.09,East,97,3.0,5.0,87,0.00,,,0.00,Wunderground v.1.15,2013-06-10 20:44:00,
2013-06-10 16:50:00,62.0,58.1,30.09,NE,54,2.0,4.0,87,0.00,,,0.00,Wunderground v.1.15,2013-06-10 20:50:00,
2013-06-10 16:55:00,61.9,58.3,30.09,ENE,61,2.0,4.0,88,0.00,,,0.00,Wunderground v.1.15,2013-06-10 20:55:00,
2013-06-10 17:00:00,61.7,58.4,30.09,NE,44,2.0,2.0,89,0.00,,,0.00,Wunderground v.1.15,2013-06-10 21:00:00,
2013-06-10 17:05:00,61.7,58.7,30.08,East,100,2.0,5.0,90,0.00,,,0.00,Wunderground v.1.15,2013-06-10 21:05:00,
2013-06-10 17:10:00,61.6,58.6,30.08,ESE,103,1.0,5.0,90,0.00,,,0.00,Wunderground v.1.15,2013-06-10 21:10:00,
2013-06-10 17:16:00,61.5,58.5,30.08,East,88,1.0,5.0,90,0.00,,,0.00,Wunderground v.1.15,2013-06-10 21:16:00,
2013-06-10 17:22:00,61.4,58.1,30.08,SSE,163,1.0,5.0,89,0.00,,,0.00,Wunderground v.1.15,2013-06-10 21:22:00,
2013-06-10 17:27:00,61.3,58.0,30.08,East,100,1.0,5.0,89,0.00,,,0.00,Wunderground v.1.15,2013-06-10 21:27:00,
2013-06-10 17:32:00,61.3,58.0,30.08,West,262,1.0,2.0,89,0.00,,,0.00,Wunderground v.1.15,2013-06-10 21:32:00,
2013-06-10 17:38:00,61.3,58.0,30.07,ENE,67,2.0,3.0,89,0.00,,,0.00,Wunderground v.1.15,2013-06-10 21:38:00,
2013-06-10 17:43:00,61.1,57.8,30.07,East,87,2.0,4.0,89,0.00,,,0.00,Wunderground v.1.15,2013-06-10 21:43:00,
2013-06-10 17:49:00,60.9,57.9,30.07,ENE,70,2.0,5.0,90,0.00,,,0.00,Wunderground v.1.15,2013-06-10 21:49:00,
2013-06-10 17:54:00,60.9,57.9,30.07,ENE,64,1.0,2.0,90,0.00,,,0.00,Wunderground v.1.15,2013-06-10 21:54:00,
2013-06-10 17:59:00,60.8,57.8,30.06,WNW,289,1.0,3.0,90,0.00,,,0.00,Wunderground v.1.15,2013-06-10 21:59:00,
2013-06-10 18:05:00,60.6,57.7,30.06,NNE,24,2.0,2.0,90,0.00,,,0.00,Wunderground v.1.15,2013-06-10 22:05:00,
2013-06-10 18:11:00,60.7,58.1,30.06,East,98,1.0,1.0,91,0.00,,,0.00,Wunderground v.1.15,2013-06-10 22:11:00,
2013-06-10 18:16:00,60.6,57.7,30.06,East,84,1.0,4.0,90,0.00,,,0.00,Wunderground v.1.15,2013-06-10 22:16:00,
2013-06-10 18:21:00,60.4,57.8,30.06,East,95,1.0,1.0,91,0.00,,,0.00,Wunderground v.1.15,2013-06-10 22:21:00,
2013-06-10 18:26:00,60.3,57.4,30.06,SSW,192,1.0,2.0,90,0.00,,,0.00,Wunderground v.1.15,2013-06-10 22:26:00,
2013-06-10 18:32:00,60.3,57.7,30.06,SSE,153,1.0,1.0,91,0.00,,,0.00,Wunderground v.1.15,2013-06-10 22:32:00,
2013-06-10 18:37:00,60.3,57.7,30.06,East,80,2.0,5.0,91,0.00,,,0.00,Wunderground v.1.15,2013-06-10 22:37:00,
2013-06-10 18:42:00,60.2,57.6,30.06,SSE,154,2.0,4.0,91,0.00,,,0.00,Wunderground v.1.15,2013-06-10 22:42:00,
2013-06-10 18:47:00,60.1,57.2,30.06,SSW,192,2.0,5.0,90,0.00,,,0.00,Wunderground v.1.15,2013-06-10 22:47:00,
2013-06-10 18:53:00,60.1,57.5,30.06,South,171,2.0,5.0,91,0.00,,,0.00,Wunderground v.1.15,2013-06-10 22:53:00,
2013-06-10 18:58:00,60.0,57.4,30.06,ESE,102,2.0,5.0,91,0.00,,,0.00,Wunderground v.1.15,2013-06-10 22:58:00,
2013-06-10 19:04:00,60.0,57.4,30.06,SSW,207,2.0,2.0,91,0.00,,,0.01,Wunderground v.1.15,2013-06-10 23:04:00,
2013-06-10 19:09:00,60.0,57.4,30.06,ENE,65,1.0,2.0,91,0.00,,,0.01,Wunderground v.1.15,2013-06-10 23:09:00,
2013-06-10 19:14:00,59.9,57.6,30.06,NE,54,1.0,4.0,92,0.00,,,0.01,Wunderground v.1.15,2013-06-10 23:14:00,
2013-06-10 19:20:00,59.9,57.6,30.06,South,176,1.0,1.0,92,0.00,,,0.01,Wunderground v.1.15,2013-06-10 23:20:00,
2013-06-10 19:25:00,59.9,57.6,30.06,SE,137,0.0,2.0,92,0.00,,,0.02,Wunderground v.1.15,2013-06-10 23:25:00,
2013-06-10 19:31:00,59.8,57.5,30.06,ENE,69,0.0,0.0,92,0.00,,,0.02,Wunderground v.1.15,2013-06-10 23:31:00,
2013-06-10 19:36:00,59.7,57.4,30.05,ENE,67,1.0,2.0,92,0.00,,,0.02,Wunderground v.1.15,2013-06-10 23:36:00,
2013-06-10 19:41:00,59.5,57.2,30.05,SE,131,1.0,1.0,92,0.00,,,0.02,Wunderground v.1.15,2013-06-10 23:41:00,
2013-06-10 19:46:00,59.5,57.2,30.05,ENE,76,1.0,2.0,92,0.00,,,0.02,Wunderground v.1.15,2013-06-10 23:46:00,
2013-06-10 19:51:00,59.4,57.4,30.05,ENE,57,1.0,1.0,93,0.00,,,0.03,Wunderground v.1.15,2013-06-10 23:51:00,
2013-06-10 19:56:00,59.3,57.3,30.05,East,95,1.0,2.0,93,0.09,,,0.04,Wunderground v.1.15,2013-06-10 23:56:00,
2013-06-10 20:01:00,59.1,57.1,30.05,NE,44,1.0,1.0,93,0.09,,,0.04,Wunderground v.1.15,2013-06-11 00:01:00,
2013-06-10 20:07:00,59.0,57.3,30.05,ENE,76,1.0,2.0,94,0.27,,,0.06,Wunderground v.1.15,2013-06-11 00:07:00,
2013-06-10 20:12:00,59.0,57.3,30.04,ESE,115,1.0,4.0,94,0.08,,,0.06,Wunderground v.1.15,2013-06-11 00:12:00,
2013-06-10 20:18:00,58.9,57.2,30.04,ESE,108,1.0,4.0,94,0.07,,,0.07,Wunderground v.1.15,2013-06-11 00:18:00,
2013-06-10 20:24:00,58.9,57.5,30.04,East,101,1.0,4.0,95,0.08,,,0.08,Wunderground v.1.15,2013-06-11 00:24:00,
2013-06-10 20:29:00,58.8,57.4,30.04,East,81,1.0,4.0,95,0.07,,,0.08,Wunderground v.1.15,2013-06-11 00:29:00,
2013-06-10 20:34:00,58.8,57.4,30.03,East,94,1.0,2.0,95,0.07,,,0.09,Wunderground v.1.15,2013-06-11 00:34:00,
2013-06-10 20:40:00,58.7,57.3,30.03,SSW,211,1.0,1.0,95,0.14,,,0.11,Wunderground v.1.15,2013-06-11 00:40:00,
2013-06-10 20:45:00,58.7,57.3,30.03,ENE,78,1.0,4.0,95,0.10,,,0.11,Wunderground v.1.15,2013-06-11 00:45:00,
2013-06-10 20:50:00,58.7,57.3,30.02,East,100,1.0,1.0,95,0.08,,,0.12,Wunderground v.1.15,2013-06-11 00:50:00,
2013-06-10 20:55:00,58.6,57.2,30.02,NE,55,2.0,3.0,95,0.09,,,0.13,Wunderground v.1.15,2013-06-11 00:55:00,
2013-06-10 21:01:00,58.6,57.2,30.02,ENE,59,2.0,5.0,95,0.11,,,0.14,Wunderground v.1.15,2013-06-11 01:01:00,
2013-06-10 21:06:00,58.5,57.4,30.02,South,180,2.0,5.0,96,0.12,,,0.16,Wunderground v.1.15,2013-06-11 01:06:00,
2013-06-10 21:11:00,58.4,57.3,30.01,ENE,67,2.0,4.0,96,0.12,,,0.16,Wunderground v.1.15,2013-06-11 01:11:00,
2013-06-10 21:17:00,58.4,57.3,30.01,ESE,111,2.0,5.0,96,0.05,,,0.16,Wunderground v.1.15,2013-06-11 01:17:00,
2013-06-10 21:23:00,58.4,57.3,30.02,East,84,2.0,3.0,96,0.05,,,0.17,Wunderground v.1.15,2013-06-11 01:23:00,
2013-06-10 21:28:00,58.4,57.3,30.01,NE,45,2.0,4.0,96,0.05,,,0.17,Wunderground v.1.15,2013-06-11 01:28:00,
2013-06-10 21:34:00,58.4,57.3,30.00,ENE,78,2.0,5.0,96,0.06,,,0.18,Wunderground v.1.15,2013-06-11 01:34:00,
2013-06-10 21:39:00,58.3,57.2,30.00,East,83,3.0,7.0,96,0.06,,,0.19,Wunderground v.1.15,2013-06-11 01:39:00,
2013-06-10 21:44:00,58.4,57.3,30.00,NE,35,2.0,4.0,96,0.06,,,0.19,Wunderground v.1.15,2013-06-11 01:44:00,
2013-06-10 21:49:00,58.4,57.3,30.00,ESE,117,2.0,6.0,96,0.16,,,0.21,Wunderground v.1.15,2013-06-11 01:49:00,
2013-06-10 21:54:00,58.4,57.3,30.00,ENE,67,2.0,4.0,96,0.20,,,0.22,Wunderground v.1.15,2013-06-11 01:54:00,
2013-06-10 22:00:00,58.3,57.2,30.00,South,183,2.0,2.0,96,0.18,,,0.24,Wunderground v.1.15,2013-06-11 02:00:00,
2013-06-10 22:06:00,58.3,57.2,30.00,NE,55,2.0,2.0,96,0.32,,,0.26,Wunderground v.1.15,2013-06-11 02:06:00,
2013-06-10 22:11:00,58.4,57.3,29.99,SSW,199,2.0,2.0,96,0.20,,,0.27,Wunderground v.1.15,2013-06-11 02:11:00,
2013-06-10 22:17:00,58.3,57.5,29.99,East,96,2.0,6.0,97,0.15,,,0.29,Wunderground v.1.15,2013-06-11 02:17:00,
2013-06-10 22:23:00,58.2,57.4,29.98,ESE,104,3.0,5.0,97,0.11,,,0.30,Wunderground v.1.15,2013-06-11 02:23:00,
2013-06-10 22:29:00,58.1,57.3,29.98,SE,132,3.0,5.0,97,0.17,,,0.32,Wunderground v.1.15,2013-06-11 02:29:00,
2013-06-10 22:35:00,57.8,56.7,29.98,NE,53,4.0,6.0,96,0.10,,,0.33,Wunderground v.1.15,2013-06-11 02:35:00,
2013-06-10 22:40:00,57.8,56.7,29.98,ESE,115,4.0,6.0,96,0.08,,,0.34,Wunderground v.1.15,2013-06-11 02:40:00,
2013-06-10 22:45:00,57.7,56.6,29.97,NNW,327,3.0,4.0,96,0.08,,,0.34,Wunderground v.1.15,2013-06-11 02:45:00,
2013-06-10 22:50:00,57.7,56.6,29.98,ESE,119,3.0,5.0,96,0.07,,,0.35,Wunderground v.1.15,2013-06-11 02:50:00,
2013-06-10 22:55:00,57.6,56.5,29.98,NE,40,3.0,7.0,96,0.16,,,0.36,Wunderground v.1.15,2013-06-11 02:55:00,
2013-06-10 23:00:00,57.5,56.4,29.98,ESE,102,4.0,4.0,96,0.21,,,0.39,Wunderground v.1.15,2013-06-11 03:00:00,
2013-06-10 23:06:00,57.5,56.4,29.98,SSW,194,4.0,7.0,96,0.34,,,0.43,Wunderground v.1.15,2013-06-11 03:06:00,
2013-06-10 23:12:00,57.4,56.3,29.97,East,90,3.0,4.0,96,0.38,,,0.47,Wunderground v.1.15,2013-06-11 03:12:00,
2013-06-10 23:18:00,57.4,56.6,29.97,ESE,114,2.0,4.0,97,0.38,,,0.50,Wunderground v.1.15,2013-06-11 03:18:00,
2013-06-10 23:24:00,57.3,56.5,29.98,NW,311,3.0,4.0,97,0.15,,,0.53,Wunderground v.1.15,2013-06-11 03:24:00,
2013-06-10 23:29:00,57.3,56.5,29.98,East,98,3.0,6.0,97,0.75,,,0.55,Wunderground v.1.15,2013-06-11 03:29:00,
2013-06-10 23:35:00,57.3,56.5,29.98,ENE,72,3.0,7.0,97,0.60,,,0.62,Wunderground v.1.15,2013-06-11 03:35:00,
2013-06-10 23:40:00,57.2,56.4,29.98,ESE,121,3.0,4.0,97,0.46,,,0.67,Wunderground v.1.15,2013-06-11 03:40:00,
2013-06-10 23:45:00,57.1,56.3,29.98,SE,144,3.0,7.0,97,0.44,,,0.72,Wunderground v.1.15,2013-06-11 03:45:00,
2013-06-10 23:50:00,57.1,56.3,29.98,East,92,4.0,4.0,97,0.54,,,0.76,Wunderground v.1.15,2013-06-11 03:50:00,
2013-06-10 23:56:00,57.1,56.3,29.97,ENE,76,4.0,6.0,97,0.47,,,0.80,Wunderground v.1.15,2013-06-11 03:56:00,